Regional Weather Roundup
Issued by NWS

Home | Current Version | Previous Version | Text Only | Print | Product List | Glossary Off
Versions: 1 2 3 4 5 6 7 8 9 10 11 12 13 14 15 16 17 18 19 20 21 22 23 24 25 26 27 28 29 30 31 32 33 34 35 36 37 38 39 40 41 42 43 44 45 46 47 48 49 50

000
ASUS45 KPSR 301610
RWRAZ

ARIZONA HOURLY REGIONAL WEATHER ROUNDUP
NATIONAL WEATHER SERVICE PHOENIX AZ
900 AM MST THU JUL 30 2015

NOTE: FAIR INDICATES FEW OR NO CLOUDS BELOW 12,000 FEET WITH NO
SIGNIFICANT WEATHER AND/OR OBSTRUCTIONS TO VISIBILITY.

AZZ001>003-036-301700-
NORTHWEST ARIZONA

CITY           SKY/WX    TMP DP  RH WIND       PRES   REMARKS
BULLHEAD CITY  CLOUDY    95  59  30 SW3       29.98S
KINGMAN        CLOUDY    86  55  34 CALM      30.18F
$$

AZZ004>008-015-016-018-301700-
NORTH CENTRAL ARIZONA

CITY           SKY/WX    TMP DP  RH WIND       PRES   REMARKS
GRAND CANYON   MOSUNNY   75  50  41 NE3       30.42S
WILLIAMS       PTSUNNY   75  50  41 CALM      30.48S
PRESCOTT       PTSUNNY   77  57  50 VRB5      30.30R
FLAGSTAFF      CLOUDY    64  53  67 E8        30.45S
PAYSON         CLOUDY    73  59  60 VRB7      30.33S
PAGE           SUNNY     80  56  43 VRB3      30.26S
$$

AZZ009>014-017-301700-
NORTHEAST ARIZONA

CITY           SKY/WX    TMP DP  RH WIND       PRES   REMARKS
WINSLOW          N/A     71  60  68 CALM      30.34R
SAINT JOHNS    CLOUDY    68  58  70 E8        30.37R
SHOW LOW       PTSUNNY   61  57  88 N3        30.42S
$$

AZZ023-301700-
GREATER PHOENIX AREA

CITY           SKY/WX    TMP DP  RH WIND       PRES   REMARKS
PHOENIX        PTSUNNY   92  61  35 E10       30.02R
GLENDALE       PTSUNNY   91  63  38 E8        30.04S
LUKE AFB       MOSUNNY   90  63  40 VRB6      30.02S
DEER VALLEY    MOSUNNY   90  60  36 SE5       30.04S
SCOTTSDALE     MOSUNNY   90  59  35 E7        30.06S
MESA-FALCON    MOSUNNY   88  61  40 N7        30.04S
MESA-GATEWAY   MOSUNNY   90  61  37 SE7       30.06S
CHANDLER       PTSUNNY   90  64  43 E9        30.04S
$$

AZZ027-028-301700-
SOUTHWEST MARICOPA COUNTY AND PINAL COUNTY

CITY           SKY/WX    TMP DP  RH WIND       PRES   REMARKS
CASA GRANDE    MOSUNNY   88  63  42 CALM      30.04S
$$

AZZ503-504-507>509-301700-
SOUTHEAST ARIZONA

CITY           SKY/WX    TMP DP  RH WIND       PRES   REMARKS
TUCSON         SUNNY     84  61  45 SE7       30.15R
DAVIS-MONTHAN  MOSUNNY   83  64  52 E15       30.13S
RYAN FIELD     SUNNY     84  66  54 E10       30.13S
NOGALES        SUNNY     79  62  56 VRB3      30.22R
DOUGLAS          N/A    N/A N/A N/A MISG      30.25R
SAFFORD        PTSUNNY   78  65  63 S7        30.21S
$$

AZZ020-021-025-026-031-301700-
SOUTHWEST ARIZONA

CITY           SKY/WX    TMP DP  RH WIND       PRES   REMARKS
YUMA           MOSUNNY   96  63  33 E6        29.94S
$$

CAZ031-033-041-043-047-048-061-301700-
SOUTHERN CALIFORNIA

CITY           SKY/WX    TMP DP  RH WIND       PRES   REMARKS
DOWNTOWN L.A.  PTSUNNY   72  64  76 CALM      30.00R
L.A. AIRPORT   PTSUNNY   69  65  86 W7        30.02R
SAN DIEGO      MOSUNNY   75  65  70 CALM      30.02S
BURBANK        PTSUNNY   74  63  68 SE6       30.02R
ONTARIO        PTSUNNY   77  63  61 VRB3      30.01S
RIVERSIDE      PTSUNNY   78  64  61 W5        30.01S
PALM SPRINGS   PTSUNNY   92  68  45 CALM      29.98R
EL CENTRO NAS  MOSUNNY   92  69  47 CALM      29.93S
IMPERIAL       SUNNY     93  76  57 E6        29.91R HX 105
BLYTHE         MOSUNNY   96  62  32 S12       29.95R
NEEDLES        CLOUDY    97  57  26 CALM      29.99R
$$

NVZ020-UTZ003-301700-
SOUTHERN NEVADA-UTAH

CITY           SKY/WX    TMP DP  RH WIND       PRES   REMARKS
LAS VEGAS      PTSUNNY   94  49  21 CALM      30.04R
SALT LAKE CITY MOSUNNY   75  35  23 CALM      30.30S
$$

NMZ009-TXZ055-301700-
NEW MEXICO-WEST TEXAS

CITY           SKY/WX    TMP DP  RH WIND       PRES   REMARKS
ALBUQUERQUE    PTSUNNY   69  61  75 NW5       30.40S
EL PASO        CLOUDY    70  65  84 NW13      30.26R
$$


........................KEY........................
SKY/WX - SKY CONDITION/WEATHER
TMP    - TEMPERATURE IN FAHRENHEIT
DP     - DEW POINT IN FAHRENHEIT
RH     - RELATIVE HUMIDITY IN PERCENT
WIND   - DIRECTION AND SPEED IN MILES PER HOUR (MPH)
VRB    - VARIABLE WIND DIRECTION
PRES   - MEAN SEA LEVEL PRESSURE IN INCHES OF MERCURY
         F - FALLING PRESSURE   R - RISING PRESSURE
         S - STEADY PRESSURE
VSB    - VISIBILITY IN MILES
HX     - HEAT INDEX IN FAHRENHEIT
WCI    - WIND CHILL INDEX IN FAHRENHEIT
TC     - TEMPERATURE IN CELSIUS WHICH IS ALSO KNOWN AS
         TEMPERATURE IN CENTIGRADE
AFB    - AIR FORCE BASE
         LUKE AFB IS LUKE AIR FORCE BASE
         DAVIS-MONTHAN IS DAVIS-MONTHAN AIR FORCE BASE
NAS    - NAVAL AIR STATION
         EL CENTRO NAS IS EL CENTRO NAVAL AIR STATION
N/A    - NOT AVAILABLE




USA.gov is the U.S. government's official web portal to all federal, state and local government web resources and services.